Location: Casper
(42.8670°N, 106.3130°W)
Time: 10:52:29
(UTC-06:00)

Daily predictions for brighter satellites

Satellite Brightness Start Highest point End
(mag) Time Altitude Azimuth Time Altitude Azimuth Time Altitude Azimuth
USA 215 4.2 19:12:45 10° ENE 19:18:05 26° SE 19:23:23 10° S
OAO 3 Rocket 4.4 19:15:28 10° WSW 19:19:38 31° S 19:23:50 10° ESE
Cosmos 1758 3.8 19:16:25 10° SSE 19:20:14 39° E 19:24:05 10° NNE
Cosmos 724 4.4 19:14:57 10° SSW 19:20:44 58° ESE 19:26:42 10° NE
Cosmos 1378 3.4 19:19:39 10° NNW 19:23:24 75° W 19:27:07 10° S
Cosmos 1408 Rocket 3.5 19:22:04 10° N 19:26:24 66° E 19:30:41 10° SSE
SKYMED 2 3.8 19:22:59 10° N 19:27:20 77° WNW 19:31:40 10° SSW
Cosmos 1464 Rocket 4.0 19:23:51 10° S 19:30:04 78° E 19:36:14 10° N
Cosmos 2034 Rocket 4.1 19:24:13 10° S 19:30:20 58° E 19:36:33 10° NNE
SL-16 R/B 2.9 19:25:11 10° SW 19:30:47 59° WNW 19:36:27 10° NNE
TELKOM 3 3.5 19:28:38 10° NW 19:31:42 53° NNE 19:33:27 15° E
Cosmos 1766 3.8 19:28:21 10° SSW 19:32:17 65° W 19:36:17 10° N
Meteor 1-21 Rocket 4.2 19:31:50 10° N 19:37:20 60° ENE 19:42:46 10° SSE
Helios 1A 3.5 19:33:56 10° SE 19:37:51 39° ENE 19:41:47 10° N
FENGYUN 3A 4.4 19:34:10 10° SE 19:38:49 31° ENE 19:43:31 10° N
Spot 1 4.3 19:34:32 10° SSE 19:39:05 55° ENE 19:43:23 10° N
Meteor 1-28 Rocket 3.0 19:38:54 10° NNE 19:42:38 75° ESE 19:46:20 10° S
Meteor 1-29 3.8 19:40:01 10° NE 19:43:06 28° E 19:46:09 10° SSE
CZ-4C R/B 4.3 19:41:53 10° W 19:46:28 25° NNW 19:51:32 10° NNE
GPS 2-04 Rocket1 4.0 19:45:11 10° SW 19:47:55 22° S 19:49:39 15° SE
H-2A R/B 3.8 19:52:22 20° ESE 19:53:53 26° ENE 19:57:08 10° NNE
NOSS 3-2 (A) 4.4 19:48:00 10° WSW 19:53:56 50° NW 20:00:29 10° NNE
ASTEX 1 3.8 19:52:18 10° NNE 19:56:52 37° E 20:01:23 10° SSE
Cosmos 1743 Rocket 3.5 19:52:50 10° N 19:57:16 68° E 20:01:38 10° SSE
Cosmos 1805 3.5 19:53:52 10° SSW 19:57:47 74° W 20:01:45 10° N
NOAA 12 4.4 19:52:48 10° S 19:58:02 73° WSW 20:03:21 10° NNW
Resurs 1-3 3.6 19:54:53 10° SSE 19:59:11 59° ENE 20:03:31 10° N
Cosmos 1452 Rocket 4.4 19:55:26 10° NNW 20:00:31 51° WSW 20:05:35 10° S
Cosmos 1943 Rocket 3.4 19:56:15 10° N 20:00:47 24° NE 20:02:44 20° E
Elektron 1 4.2 19:58:48 10° SSW 20:01:32 38° ESE 20:02:39 27° ENE
ALOS 2.5 19:58:47 10° SE 20:03:15 47° ENE 20:07:45 10° N
Helios 1B rocket 2.3 20:01:41 10° NNE 20:05:49 72° ESE 20:09:54 10° S
Cosmos 2251 Rocket 4.4 20:03:03 10° SSE 20:07:18 26° E 20:11:35 10° NE
Resurs 01 Rocket 1.6 20:03:01 10° SSE 20:07:28 88° W 20:11:57 10° NNW
Cosmos 2369 Rocket 2.3 20:03:22 10° NNW 20:08:57 57° ENE 20:12:52 20° SE
ISS -3.5 20:05:54 10° SW 20:09:09 87° SE 20:10:28 33° ENE
SL-8 R/B 3.6 20:04:28 10° WSW 20:09:16 87° SSE 20:12:18 23° ENE
Cosmos 1943 3.3 20:05:46 10° S 20:11:11 51° ESE 20:16:38 10° NE
Cosmos 1953 3.3 20:08:01 10° SSW 20:11:53 49° WNW 20:15:46 10° N
Cosmos 1733 3.2 20:12:04 10° S 20:15:50 55° E 20:19:37 10° NNE
Cosmos 839 Rocket 4.3 20:08:07 10° NNW 20:15:53 64° NE 20:20:01 24° SE
Gbstr 26 Del rocket 3.3 20:11:52 10° SW 20:16:12 60° SE 20:19:04 26° ENE
ERBS 3.8 20:14:46 10° NNW 20:17:41 24° NNE 20:17:57 24° NE
Cosmos 1603 4.2 20:12:53 10° SW 20:18:35 64° WNW 20:24:19 10° NNE
CENTAUR R/B 2.4 20:13:04 10° SSW 20:19:00 64° ESE 20:25:43 10° NE
Cosmos 1420 Rocket 4.5 20:14:24 10° NNW 20:19:40 63° WSW 20:24:54 10° S
Cosmos 2263 4.4 20:15:15 10° NNW 20:20:54 52° ENE 20:23:31 30° ESE
Cosmos 1674 2.7 20:18:56 10° N 20:22:50 82° W 20:26:29 11° S
Cosmos 1470 2.6 20:19:28 10° S 20:23:21 85° E 20:27:15 10° N
Abrixas 3.0 20:24:40 10° W 20:27:37 53° NNW 20:27:53 50° N
Cosmos 2058 3.8 20:25:05 10° N 20:28:02 32° NE 20:28:02 32° NE
GP-B 3.2 20:25:01 10° NNE 20:29:22 52° E 20:30:26 41° SE
Nadezhda 4 Rocket 4.4 20:26:01 10° NNW 20:32:13 65° W 20:38:19 10° S
Spot 2 Rocket 4.4 20:29:13 10° S 20:34:05 49° W 20:38:59 10° NNW
Cosmos 2279 Rocket 4.3 20:32:29 32° SE 20:34:31 41° E 20:40:15 10° NNE
Cosmos 2151 2.8 20:33:27 10° N 20:37:41 69° E 20:38:15 59° SE
H-2A R/B 4.5 20:40:19 11° NNE 20:40:19 11° NNE 20:40:46 10° NNE
Cosmos 1092 Rocket 4.1 20:36:09 10° N 20:42:20 74° W 20:48:27 10° S
Cosmos 2221 4.3 20:46:32 20° NNE 20:46:32 20° NNE 20:48:02 10° NNE
ATLAS 5 CENTAUR R/B 3.9 20:40:31 10° W 20:44:39 26° NW 20:49:06 10° NNE
Envisat 3.9 20:45:50 32° NE 20:45:50 32° NE 20:49:34 10° N
SL-24 R/B - RUBIN 2 4.5 20:38:34 10° NNW 20:45:15 69° NE 20:47:14 45° ESE
Cosmos 158 Rocket 3.9 20:45:50 10° SSW 20:50:42 74° WNW 20:55:36 10° NNE
Cosmos 1174 4.2 20:46:31 10° SW 20:51:06 65° WNW 20:52:20 40° N
Meteor 2-1 Rocket 4.3 20:50:45 49° SE 20:51:48 56° E 20:57:33 10° NNE
Cosmos 2142 Rocket 4.5 20:46:07 10° S 20:52:30 90° ENE 20:58:57 10° N
Cosmos 1655 Rocket 3.9 20:46:49 10° N 20:53:02 69° E 20:55:08 43° SSE
Cosmos 2026 Rocket 3.8 20:47:09 10° N 20:53:17 77° E 20:55:57 36° SSE
Meteor 1-16 Rocket 3.9 20:48:33 10° S 20:53:49 78° E 20:59:10 10° NNE
CZ-4B DEB 4.2 20:55:35 35° WSW 20:55:52 36° W 20:58:55 10° NNW
Cosmos 1634 Rocket 4.1 20:53:13 10° SSW 20:59:27 76° W 21:05:40 10° N
USA 215 3.2 20:56:44 20° NE 21:01:34 87° NW 21:08:07 10° SW
Meteor 1-11 4.2 21:00:08 10° N 21:05:58 86° W 21:07:35 50° S
Meteor 2-20 4.3 21:08:08 10° N 21:14:17 71° E 21:14:18 71° E
ERS-1 Rocket 3.4 21:15:51 53° N 21:15:51 53° N 21:19:47 10° N
Cosmos 1943 Rocket 2.8 21:39:24 10° NNW 21:44:17 53° W 21:44:17 53° W
Cosmos 2369 Rocket 4.3 21:48:21 10° NW 21:52:31 21° W 21:54:43 17° SW
CENTAUR R/B 4.1 22:04:35 10° W 22:10:11 32° NW 22:16:25 10° NNE
USA 215 4.4 22:44:09 36° NNW 22:44:09 36° NNW 22:49:56 10° W
